Regional Weather Roundup
Issued by NWS

Home | Current Version | Previous Version | Text Only | Print | Product List | Glossary Off
Versions: 1 2 3 4 5 6 7 8 9 10 11 12 13 14 15 16 17 18 19 20 21 22 23 24 25 26 27 28 29 30 31 32 33 34 35 36 37 38 39 40 41 42 43 44 45 46 47 48 49 50

000
ASUS43 KDTX 301710
RWRMI
MICHIGAN HOURLY REGIONAL WEATHER ROUNDUP
NATIONAL WEATHER SERVICE DETROIT/PONTIAC MI
100 PM EDT SAT MAY 30 2015

NOTE: "FAIR" INDICATES FEW OR NO CLOUDS BELOW 12,000 FEET WITH NO
SIGNIFICANT WEATHER AND/OR OBSTRUCTION TO VISIBILITY.

MIZ047>049-052>055-059>063-066>070-074>076-081>083-301800-
SOUTHEAST LOWER MICHIGAN

CITY           SKY/WX    TMP DP  RH WIND       PRES   REMARKS
ADRIAN         MOSUNNY   77  66  68 SW8       30.00F
ALMA           RAIN      69  66  92 N5        29.99S
ANN ARBOR      PTSUNNY   79  66  64 NW10G18   29.99S
BAD AXE        LGT RAIN  64  62  93 NE14      30.01S
CARO           CLOUDY    68  65  91 N6        29.98F
DETROIT CITY   LGT RAIN  70  65  84 NW12G23   29.98R
DETROIT        PTSUNNY   77  66  69 NW14      29.98S
FLINT          PTSUNNY   77  69  76 W8        29.98F
GROSSE ILE     PTSUNNY   81  70  69 S10G16    29.97S
HILLSDALE      PTSUNNY   76  68  75 NW5       30.01F
HOWELL         CLOUDY    74  68  83 W10       30.00S

CITY           SKY/WX    TMP DP  RH WIND       PRES   REMARKS
JACKSON        LGT RAIN  73  67  81 W6        30.00F
LAMBERTVILLE   MOSUNNY   82  64  54 SW9       29.99F
LANSING        CLOUDY    73  66  78 W13       30.00S
LAPEER         CLOUDY    70  67  90 SW5       29.99S
MASON          CLOUDY    71  65  81 SW5       30.00S
MONROE         MOSUNNY   81  66  61 SW13G18   29.97S
MT. CLEMENS    TSTM      66  64  94 NW6       29.97R FOG
PORT HOPE        N/A     56  55  97 N8        30.01S
PORT HURON     HVY RAIN  73  66  78 SE9       29.97R
TRI CITIES     LGT RAIN  69  64  84 N8        30.00R
MIDLAND        RAIN      66  63  90 N6        30.00R
TROY           RAIN      68  66  95 W5        30.02R
SAGINAW HB     CLOUDY    68  68 100 N9        29.99R
$$
MIZ043>046-050>051-056>058-064>065-071>073-077>080-301800-
SOUTHWEST LOWER MICHIGAN

CITY           SKY/WX    TMP DP  RH WIND       PRES   REMARKS
BATTLE CREEK   CLOUDY    72  66  81 SW7       30.01S
BENTON HARBOR  CLOUDY    68  66  93 W9        30.01S
BIG RAPIDS     RAIN      56  52  87 N9        30.04R
COLDWATER      CLOUDY    75  65  71 W5        30.00F
FREMONT        LGT RAIN  59  58  97 N6        30.01S
HOLLAND        LGT RAIN  66  64  93 SW7       30.01R
GRAND RAPIDS   LGT RAIN  69  67  93 W7        30.00S FOG
IONIA          RAIN      70  67  88 W8        29.99S
KALAMAZOO      LGT RAIN  72  66  81 SW5       30.00F
LUDINGTON      RAIN      53  51  90 N10       30.09R
MARSHALL       LGT RAIN  73  67  82 W3        30.00F
MOUNT PLEASANT LGT RAIN  62  60  93 N8        30.01S
MUSKEGON       LGT RAIN  64  61  90 NW3       30.01R FOG
SOUTH HAVEN    FOG       60  59  95 W5        30.01S VSB 1
$$
MIZ016>042-301800-
NORTHERN LOWER MICHIGAN

CITY           SKY/WX    TMP DP  RH WIND       PRES   REMARKS
ALPENA         LGT RAIN  54  51  90 N14       30.07R
BEAVER ISLAND  CLOUDY    55  41  59 N8        30.15R
BELLAIRE       LGT RAIN  51  48  91 CALM      30.12S
CADILLAC       RAIN      50  48  92 N10       30.07R
CHARLEVOIX     LGT RAIN  48  47  95 NW6       30.16R
FRANKFORT      LGT RAIN  49  44  80 N7        30.13R
GAYLORD        LGT RAIN  51  50  96 VRB6      30.09R FOG
GRAYLING       RAIN      52  50  93 NW7       30.10R
HARBOR SPRINGS DRIZZLE   53  48  83 CALM      30.11S
HOUGHTON LAKE  RAIN      54  52  93 N8        30.06S
MANISTEE       CLOUDY    52  46  82 N10G17    30.11R
OSCODA         CLOUDY    60  59  96 N10       30.01S
PELLSTON       LGT RAIN  54  45  71 N8        30.12R
ROGERS CITY    CLOUDY    53  50  90 NW13      30.09R
TRAVERSE CITY  LGT RAIN  48  46  93 N10       30.12R
$$
MIZ007>008-015-301800-
EASTERN UPPER MICHIGAN

CITY           SKY/WX    TMP DP  RH WIND       PRES   REMARKS
KINROSS        CLOUDY    54  45  71 NW12G17   30.10R
MACKINAC ISLAN CLOUDY    51  46  81 N8        30.10R
NEWBERRY       CLOUDY    49  40  70 N12G17    30.15R
S. S. MARIE    PTSUNNY   57  42  57 NW9G20    30.08R
MUNISING         N/A     42  36  79 NW23      30.23R
$$
MIZ004>006-011>014-085-301800-
CENTRAL UPPER MICHIGAN

CITY           SKY/WX    TMP DP  RH WIND       PRES   REMARKS
MANISTIQUE     CLOUDY    51  39  63 N13G21    30.16R
ESCANABA       CLOUDY    52  37  58 N17G24    30.18R
MENOMINEE      CLOUDY    54  39  58 NE17G24   30.16S
SAWYER-GWINN   PTSUNNY   43  34  70 N24G31    30.23R
$$
MIZ001>003-009>011-084-301800-
WESTERN UPPER MICHIGAN

CITY           SKY/WX    TMP DP  RH WIND       PRES   REMARKS
IRON MOUNTAIN  CLOUDY    50  40  68 N12G20    30.20R
HOUGHTON       MOSUNNY   45  33  63 N15       30.26R
COPPER HARBOR    N/A     40  33  76 N16       30.28R WCI  31
IRONWOOD       CLOUDY    43  36  75 N9        30.26R
$$

ABBREVIATIONS USED IN REMARKS
   TC - TEMPERATURE IN CELSIUS
  WCI - WIND CHILL INDEX
   HX - HEAT INDEX
  VSB - VISIBILITY



USA.gov is the U.S. government's official web portal to all federal, state and local government web resources and services.